Weather History for Pine Bluffs Muni, Pine Bluffs, WY

Change the Weather History Date:

Wednesday, December 25, 2013

  Actual Average (KCYS) Record (KCYS)
Temperature  
Mean Temperature 27 °F 28 °F  
Max Temperature 37 °F 38 °F 60 °F (2005)
Min Temperature 17 °F 17 °F -14 °F (1876)
Degree Days  
Heating Degree Days 38 37  
Month to date heating degree days 935  
Since 1 July heating degree days 2683  
Cooling Degree Days 0 0  
Month to date cooling degree days 0  
Year to date cooling degree days 348  
Moisture  
Dew Point 14 °F    
Average Humidity 59    
Maximum Humidity 79    
Minimum Humidity 33    
Precipitation  
Precipitation 0.00 in 0.02 in 0.24 in (1922)
Month to date precipitation 0.41  
Year to date precipitation 15.86  
Snow  
Snow 0.00 in 0.20 in 3.00 in (1922)
Month to date snowfall 6.9  
Since 1 July snowfall 21.2  
Snow Depth -    
Sea Level Pressure  
Sea Level Pressure 30.28 in    
Wind  
Wind Speed 12 mph (West)    
Max Wind Speed 23 mph    
Max Gust Speed 29 mph    
Visibility 10 miles    
Events      
T = Trace of Precipitation, MM = Missing Value Source: NWS Daily Summary

Daily Weather History Graph

Daily Weather History Graph

Search for Another Location

Airport:

Trip Planner

Search our weather history database for the weather conditions in past years. The results will help you decide how hot, cold, wet, or windy it might be!

Date:

Astronomy

Dec. 25, 2013 Rise Set
Actual Time 7:20 AM MST 4:33 PM MST
Civil Twilight 6:49 AM MST 5:04 PM MST
Nautical Twilight 6:14 AM MST 5:39 PM MST
Astronomical Twilight 5:40 AM MST 6:12 PM MST
Moon No Moon Rise 11:41 AM MST (12/25)
Length of Visible Light 10h 15m
Length of Day
9h 13m
Waning Gibbous, 48% of the Moon is Illuminated
Dec 25
Waning Gibbous
Jan 1
New
Jan 7
First Quarter
Jan 15
Full
Jan 23
Last Quarter

Hourly Weather History & Observations

Time (MST) Temp. Windchill Dew Point Humidity Pressure Visibility Wind Dir Wind Speed Gust Speed Precip Events Conditions
12:15 AM 17.6 °F 6.4 °F 12.2 °F 79% 30.24 in 10.0 mi West 9.2 mph - N/A   Clear
12:35 AM 17.6 °F 5.0 °F 12.2 °F 79% 30.24 in 10.0 mi West 11.5 mph - N/A   Clear
12:55 AM 19.4 °F 7.9 °F 12.2 °F 74% 30.25 in 10.0 mi West 10.4 mph - N/A   Clear
1:15 AM 21.2 °F 10.9 °F 14.0 °F 74% 30.26 in 10.0 mi West 9.2 mph - N/A   Clear
1:35 AM 23.0 °F 11.7 °F 14.0 °F 68% 30.27 in 10.0 mi West 11.5 mph 17.3 mph N/A   Clear
1:55 AM 23.0 °F 10.6 °F 14.0 °F 68% 30.27 in 10.0 mi West 13.8 mph 19.6 mph N/A   Clear
2:15 AM 23.0 °F 10.6 °F 14.0 °F 68% 30.28 in 10.0 mi WNW 13.8 mph - N/A   Clear
2:35 AM 23.0 °F 13.1 °F 14.0 °F 68% 30.29 in 10.0 mi WNW 9.2 mph - N/A   Clear
2:55 AM 26.6 °F 14.7 °F 12.2 °F 55% 30.29 in 10.0 mi WNW 15.0 mph - N/A   Clear
3:15 AM 26.6 °F 13.8 °F 14.0 °F 59% 30.28 in 10.0 mi WNW 17.3 mph 25.3 mph N/A   Clear
3:35 AM 24.8 °F 9.6 °F 14.0 °F 64% 30.29 in 10.0 mi NW 23.0 mph 28.8 mph N/A   Clear
3:55 AM 26.6 °F 14.3 °F 14.0 °F 59% 30.31 in 10.0 mi WNW 16.1 mph - N/A   Clear
4:15 AM 26.6 °F 13.8 °F 14.0 °F 59% 30.31 in 10.0 mi WNW 17.3 mph 23.0 mph N/A   Clear
4:35 AM 24.8 °F 11.9 °F 14.0 °F 64% 30.31 in 10.0 mi WNW 16.1 mph 23.0 mph N/A   Clear
4:55 AM 24.8 °F 11.5 °F 14.0 °F 64% 30.31 in 10.0 mi WNW 17.3 mph 23.0 mph N/A   Clear
5:15 AM 24.8 °F 11.5 °F 14.0 °F 64% 30.32 in 10.0 mi WNW 17.3 mph - N/A   Clear
5:35 AM 23.0 °F 11.1 °F 14.0 °F 68% 30.33 in 10.0 mi WNW 12.7 mph - N/A   Clear
5:55 AM 23.0 °F 10.1 °F 12.2 °F 63% 30.33 in 10.0 mi WNW 15.0 mph - N/A   Clear
6:15 AM 21.2 °F 10.1 °F 12.2 °F 68% 30.33 in 10.0 mi WNW 10.4 mph - N/A   Clear
6:35 AM 21.2 °F 10.1 °F 12.2 °F 68% 30.33 in 10.0 mi WNW 10.4 mph - N/A   Clear
6:55 AM 21.2 °F 9.5 °F 12.2 °F 68% 30.34 in 10.0 mi WNW 11.5 mph - N/A   Clear
7:15 AM 21.2 °F 8.9 °F 12.2 °F 68% 30.34 in 10.0 mi WNW 12.7 mph - N/A   Clear
7:35 AM 21.2 °F 9.5 °F 12.2 °F 68% 30.35 in 10.0 mi WNW 11.5 mph - N/A   Clear
7:55 AM 21.2 °F 11.7 °F 12.2 °F 68% 30.35 in 10.0 mi West 8.1 mph - N/A   Clear
8:15 AM 23.0 °F 13.9 °F 12.2 °F 63% 30.35 in 10.0 mi West 8.1 mph - N/A   Clear
8:35 AM 23.0 °F 13.9 °F 14.0 °F 68% 30.35 in 10.0 mi West 8.1 mph - N/A   Clear
8:55 AM 26.6 °F 16.8 °F 12.2 °F 55% 30.36 in 10.0 mi West 10.4 mph - N/A   Clear
9:15 AM 28.4 °F 17.5 °F 12.2 °F 51% 30.36 in 10.0 mi WNW 13.8 mph - N/A   Clear
9:35 AM 30.2 °F 19.3 °F 12.2 °F 47% 30.36 in 10.0 mi WNW 15.0 mph - N/A   Clear
9:55 AM 32.0 °F 20.8 °F 12.2 °F 44% 30.37 in 10.0 mi WNW 17.3 mph 21.9 mph N/A   Clear
10:15 AM 32.0 °F 20.5 °F 12.2 °F 44% 30.37 in 10.0 mi WNW 18.4 mph 21.9 mph N/A   Clear
10:35 AM 33.8 °F 21.9 °F 12.2 °F 41% 30.37 in 10.0 mi NW 21.9 mph - N/A   Clear
10:55 AM 33.8 °F 22.8 °F 12.2 °F 41% 30.36 in 10.0 mi WNW 18.4 mph - N/A   Clear
11:15 AM 35.6 °F 25.2 °F 10.4 °F 35% 30.35 in 10.0 mi NW 18.4 mph 24.2 mph N/A   Clear
11:35 AM 35.6 °F 26.2 °F 12.2 °F 38% 30.34 in 10.0 mi NW 15.0 mph - N/A   Clear
11:55 AM 35.6 °F 25.9 °F 12.2 °F 38% 30.34 in 10.0 mi NW 16.1 mph 19.6 mph N/A   Clear
12:15 PM 35.6 °F 26.2 °F 12.2 °F 38% 30.33 in 10.0 mi NNW 15.0 mph 19.6 mph N/A   Clear
12:35 PM 35.6 °F 26.6 °F 12.2 °F 38% 30.31 in 10.0 mi NNW 13.8 mph 18.4 mph N/A   Clear
12:55 PM 37.4 °F 27.8 °F 10.4 °F 33% 30.30 in 10.0 mi NW 17.3 mph 21.9 mph N/A   Clear
1:15 PM 37.4 °F 27.5 °F 10.4 °F 33% 30.29 in 10.0 mi NW 18.4 mph 21.9 mph N/A   Clear
1:35 PM 37.4 °F 27.8 °F 10.4 °F 33% 30.28 in 10.0 mi NW 17.3 mph - N/A   Clear
1:55 PM 37.4 °F 28.5 °F 10.4 °F 33% 30.27 in 10.0 mi NW 15.0 mph 18.4 mph N/A   Clear
2:15 PM 37.4 °F 28.9 °F 12.2 °F 36% 30.27 in 10.0 mi NW 13.8 mph - N/A   Clear
2:35 PM 37.4 °F 29.3 °F 12.2 °F 36% 30.27 in 10.0 mi NW 12.7 mph - N/A   Clear
2:55 PM 37.4 °F 30.8 °F 12.2 °F 36% 30.27 in 10.0 mi WNW 9.2 mph - N/A   Clear
3:15 PM 37.4 °F 32.1 °F 12.2 °F 36% 30.27 in 10.0 mi West 6.9 mph - N/A   Clear
3:35 PM 37.4 °F 33.8 °F 14.0 °F 38% 30.27 in 10.0 mi SW 4.6 mph - N/A   Clear
3:55 PM 35.6 °F 29.2 °F 15.8 °F 44% 30.26 in 10.0 mi SSW 8.1 mph - N/A   Clear
4:15 PM 32.0 °F 25.6 °F 15.8 °F 51% 30.26 in 10.0 mi SSW 6.9 mph - N/A   Clear
4:35 PM 30.2 °F 22.6 °F 17.6 °F 60% 30.25 in 10.0 mi SSW 8.1 mph - N/A   Clear
4:55 PM 28.4 °F 20.4 °F 17.6 °F 64% 30.25 in 10.0 mi SW 8.1 mph - N/A   Clear
5:15 PM 30.2 °F 21.3 °F 17.6 °F 60% 30.25 in 10.0 mi SW 10.4 mph - N/A   Clear
5:35 PM 28.4 °F 20.4 °F 19.4 °F 69% 30.24 in 10.0 mi SSW 8.1 mph - N/A   Clear
5:55 PM 26.6 °F 21.2 °F 19.4 °F 74% 30.24 in 10.0 mi SSW 4.6 mph - N/A   Clear
6:15 PM 28.4 °F 19.7 °F 19.4 °F 69% 30.23 in 10.0 mi WSW 9.2 mph - N/A   Clear
6:35 PM 28.4 °F 18.5 °F 19.4 °F 69% 30.23 in 10.0 mi SW 11.5 mph - N/A   Clear
6:55 PM 28.4 °F 20.4 °F 19.4 °F 69% 30.23 in 10.0 mi West 8.1 mph - N/A   Clear
7:15 PM 26.6 °F 19.1 °F 19.4 °F 74% 30.23 in 10.0 mi West 6.9 mph - N/A   Clear
7:35 PM 26.6 °F 16.8 °F 19.4 °F 74% 30.22 in 10.0 mi SW 10.4 mph - N/A   Clear
7:55 PM 28.4 °F 18.0 °F 17.6 °F 64% 30.21 in 10.0 mi SW 12.7 mph - N/A   Clear
8:15 PM 28.4 °F 17.5 °F 17.6 °F 64% 30.20 in 10.0 mi SW 13.8 mph - N/A   Clear
8:35 PM 26.6 °F 21.2 °F 17.6 °F 69% 30.20 in 10.0 mi West 4.6 mph - N/A   Clear
8:55 PM 24.8 °F 17.9 °F 17.6 °F 74% 30.19 in 10.0 mi West 5.8 mph - N/A   Clear
9:15 PM 23.0 °F - 15.8 °F 74% 30.19 in 10.0 mi Calm Calm - N/A   Clear
9:35 PM 23.0 °F 15.8 °F 15.8 °F 74% 30.19 in 10.0 mi WSW 5.8 mph - N/A   Clear
9:55 PM 21.2 °F - 14.0 °F 74% 30.18 in 10.0 mi Calm Calm - N/A   Clear
10:15 PM 23.0 °F 18.4 °F 14.0 °F 68% 30.18 in 10.0 mi West 3.5 mph - N/A   Clear
10:35 PM 23.0 °F 14.7 °F 14.0 °F 68% 30.18 in 10.0 mi SSW 6.9 mph - N/A   Clear
10:55 PM 21.2 °F 14.9 °F 14.0 °F 74% 30.18 in 10.0 mi SW 4.6 mph - N/A   Clear
11:15 PM 21.2 °F - 14.0 °F 74% 30.17 in 10.0 mi Calm Calm - N/A   Clear
11:35 PM 21.2 °F 13.6 °F 14.0 °F 74% 30.17 in 10.0 mi South 5.8 mph - N/A   Clear
11:55 PM 21.2 °F 13.6 °F 14.0 °F 74% 30.17 in 10.0 mi South 5.8 mph - N/A   Clear